Regional Weather Roundup
Issued by NWS

Home | Current Version | Previous Version | Graphics & Text | Print | Product List | Glossary On
Versions: 1 2 3 4 5 6 7 8 9 10 11 12 13 14 15 16 17 18 19 20 21 22 23 24 25 26 27 28 29 30 31 32 33 34 35 36 37 38 39 40 41 42 43 44 45 46 47 48 49 50
000
ASUS43 KBIS 110102
RWRND

NORTH DAKOTA REGIONAL WEATHER ROUNDUP
NATIONAL WEATHER SERVICE BISMARCK ND
700 PM CST SUN DEC 10 2017

NOTE: "FAIR" INDICATES FEW OR NO CLOUDS BELOW 12,000 FEET WITH NO
SIGNIFICANT WEATHER AND/OR OBSTRUCTIONS TO VISIBILITY.


NDZ001>003-009>011-017-110200-
NORTHWEST NORTH DAKOTA

CITY           SKY/WX    TMP DP  RH WIND       PRES   REMARKS
WILLISTON      CLOUDY    39  21  48 W12       29.98F
MINOT          CLOUDY    42  28  57 SW12      29.88F
MINOT AFB      CLOUDY    40  28  62 W14       29.87F
$$

NDZ018>021-031>035-040>046-110200-
SOUTHWEST NORTH DAKOTA

CITY           SKY/WX    TMP DP  RH WIND       PRES   REMARKS
BISMARCK       CLOUDY    43  28  55 CALM      29.97F
DICKINSON      CLOUDY    36  22  56 W10       29.99F
GARRISON         N/A     40  24  53 W12       29.94F
HETTINGER ARPT CLOUDY    42  17  36 NW8       30.04F
$$

NDZ004>008-012>016-024-026-027-054-110200-
NORTHEAST NORTH DAKOTA

CITY           SKY/WX    TMP DP  RH WIND       PRES   REMARKS
GRAND FORKS    CLOUDY    25  22  88 S8        29.93F WCI  16
GRND FRKS AFB  CLOUDY    25  22  86 S8        29.92F WCI  16
DEVILS LAKE    LGT RAIN  33  28  81 S6        29.86F
$$

NDZ022-023-025-028>030-036>039-047>053-110200-
SOUTHEAST NORTH DAKOTA

CITY           SKY/WX    TMP DP  RH WIND       PRES   REMARKS
FARGO          CLOUDY    28  21  75 S5        29.96F
JAMESTOWN      CLOUDY    37  29  72 W7        29.91F
$$





USA.gov is the U.S. government's official web portal to all federal, state and local government web resources and services.